Dewpoint
55 56 56 56 58 61 62 63 62 61 62 61 60 59 60 61 60 59 59 61 61 61 61 61 61 61 59 58 58 58 56 54 53 50 53 53 50 50 51 51 51 51 50
52 53 54 55 56 60 58 58 57 58 57 58 60 61 60 58 57 58 58 59 61 61 61 60 61 60 59 58 58 57 55 51 52 51 50 50 50 50 50 50 48 48 47
46 49 52 53 55 57 59 59 59 58 57 57 57 59 60 59 59 60 60 60 60 61 61 60 60 61 58 58 58 56 52 52 52 51 51 50 49 49 48 48 49 49 48
45 46 48 50 51 55 57 59 59 58 57 56 56 57 57 58 59 59 60 59 61 60 60 61 60 61 59 58 58 55 54 53 52 51 50 49 49 49 49 49 48 48 47
43 45 46 47 49 52 55 56 56 58 57 56 55 54 57 58 59 59 59 59 59 59 60 59 59 60 61 60 59 56 54 53 52 51 50 50 49 49 49 48 47 47 46
41 44 46 47 48 49 52 54 55 56 56 57 57 56 57 57 57 59 60 60 60 60 59 58 59 59 60 61 59 58 55 53 52 51 50 50 49 49 49 48 47 46 45
40 41 43 45 46 47 49 51 53 54 54 56 55 55 55 56 56 56 58 59 59 60 60 59 59 59 60 60 60 58 56 54 52 51 50 50 49 49 48 47 47 46 46
36 39 40 42 45 46 47 49 50 52 53 55 53 53 50 53 55 56 56 57 58 59 60 60 59 58 59 60 60 60 56 54 52 51 50 49 49 48 47 47 47 46 46
34 36 38 40 41 44 45 46 49 51 51 53 55 52 49 47 51 53 54 55 55 57 59 59 60 59 59 60 59 59 58 55 53 52 50 50 49 48 47 47 47 46 46
32 34 36 38 39 41 43 44 46 48 51 51 53 54 54 52 49 49 50 51 52 53 55 59 59 60 60 60 59 58 57 56 54 52 51 50 49 48 47 47 47 46 45
30 30 34 35 37 40 40 42 44 45 48 51 52 52 52 52 52 50 48 49 50 51 53 53 58 59 59 59 59 58 57 56 54 54 53 51 50 49 48 47 47 46 46
26 29 30 32 36 37 38 40 41 42 45 48 50 51 51 49 49 49 48 48 48 51 52 52 52 53 58 58 58 58 57 56 56 56 55 53 51 50 49 48 47 47 45
24 26 28 29 33 36 36 37 41 41 43 44 47 49 51 51 50 48 48 47 48 49 50 51 52 52 53 55 56 57 56 57 57 56 56 55 52 50 49 49 49 46 44
25 27 27 26 29 33 35 35 38 41 41 44 45 47 49 50 52 51 49 48 47 47 48 49 50 50 50 51 53 55 55 57 57 57 57 57 55 51 49 49 47 44 42
24 25 27 26 27 32 34 34 35 39 42 43 44 46 47 48 50 51 50 50 48 44 45 48 47 47 48 49 51 53 54 55 56 56 57 57 54 50 49 46 42 41 39
24 25 25 25 27 30 32 33 34 36 40 41 44 45 45 46 48 50 51 50 49 48 46 47 47 46 47 48 49 50 51 53 55 56 55 51 49 47 45 43 41 38 37
24 24 24 25 26 29 31 31 31 34 36 38 42 43 45 45 47 48 50 50 49 49 47 44 45 45 45 46 46 47 49 50 50 50 48 47 45 44 42 40 40 37 36
23 23 24 24 25 27 28 29 30 33 34 36 39 41 42 46 46 46 47 48 49 49 48 45 43 42 43 45 44 45 45 47 47 47 46 45 44 42 41 39 40 38 36
23 23 24 24 25 26 26 27 29 31 33 34 37 39 41 42 46 46 46 47 47 49 49 45 41 40 39 42 40 40 41 42 45 46 45 44 42 41 40 39 39 38 35
23 23 23 23 24 25 25 26 28 30 32 33 35 38 40 42 45 47 47 48 49 48 48 46 42 40 38 38 39 37 37 37 37 40 41 40 40 39 38 37 37 36 31
23 23 23 23 24 25 25 26 29 30 32 33 35 36 39 42 43 47 46 48 49 48 46 43 40 38 36 35 37 36 34 32 31 32 32 32 32 30 31 33 32 29 28
23 23 23 23 23 24 25 28 31 31 33 34 35 35 37 40 42 46 48 49 49 47 45 43 40 39 38 37 37 36 32 31 31 30 30 27 27 24 22 24 25 24 25
23 23 24 24 24 25 27 29 31 33 34 35 36 36 38 40 42 47 48 49 49 48 46 44 42 41 39 39 37 35 34 34 31 30 31 27 25 22 21 20 25 26 26
24 24 24 25 25 26 28 30 33 35 35 35 36 37 38 40 42 46 48 47 47 47 47 45 44 43 40 39 38 36 33 27 27 28 29 27 27 28 25 20 23 24 27
24 25 26 26 26 27 29 31 34 35 35 36 37 38 39 40 42 45 46 42 39 39 43 42 42 40 39 38 35 32 30 30 25 25 26 22 23 18 17 16 19 27 26
25 26 27 27 28 29 30 33 35 35 37 37 38 38 40 41 44 46 41 39 36 37 37 38 38 39 38 37 35 34 32 30 24 24 25 21 17 16 15 16 20 26 25
Wind_Speed
10 10 9 10 10 10 9 6 2 2 13 15 13 15 18 18 17 12 11 12 14 13 16 19 22 20 18 19 19 21 22 19 16 15 15 14 12 10 10 10 8 10 9
12 11 10 10 10 10 4 6 6 8 8 7 7 6 13 15 15 16 15 14 17 16 17 20 21 23 21 20 20 20 19 15 16 18 15 15 14 13 12 11 9 9 8
13 13 11 11 10 9 1 0 1 0 4 4 3 8 12 12 13 13 14 12 14 20 19 17 22 24 22 21 21 19 17 18 20 20 18 17 16 14 13 12 11 9 8
15 13 12 11 13 10 6 5 8 6 7 8 11 13 13 13 13 14 16 16 14 14 18 15 21 23 24 24 22 20 19 20 20 21 20 18 16 15 13 11 10 9 8
16 14 11 12 13 11 10 9 7 5 8 10 11 12 11 12 10 11 15 15 16 15 13 18 20 25 25 24 24 22 21 22 21 21 20 19 17 16 15 13 11 11 8
15 14 12 13 13 11 10 9 9 9 8 7 8 10 11 11 9 11 10 11 14 13 15 16 17 20 26 25 24 25 25 24 23 22 21 20 18 17 15 15 12 11 9
14 14 12 13 12 12 12 12 10 10 11 5 8 9 10 11 15 14 13 13 14 13 13 14 15 16 19 28 26 27 28 26 25 24 22 22 20 19 17 16 14 13 11
14 13 12 12 12 12 11 11 12 10 7 7 5 4 4 6 14 15 14 13 15 12 12 13 15 21 21 22 20 25 29 27 27 25 24 22 22 20 18 17 15 13 11
14 13 13 11 12 12 11 11 11 12 10 7 11 7 4 9 4 5 12 11 9 7 13 12 14 17 22 22 24 27 28 28 29 27 26 25 23 21 20 18 16 15 11
14 13 13 12 12 11 12 11 10 11 11 11 7 12 10 4 4 3 4 5 8 9 7 12 15 17 16 20 25 28 30 29 30 29 28 26 25 23 21 19 17 15 12
13 13 13 13 13 12 12 13 14 13 12 12 12 6 9 9 8 8 8 6 4 11 8 7 6 17 19 20 17 25 29 30 33 30 30 29 27 25 23 20 18 15 12
15 14 14 14 14 13 13 13 13 14 14 15 15 14 10 5 9 9 11 14 13 5 10 8 8 5 12 19 21 24 31 32 33 33 34 32 28 26 23 20 17 14 11
17 17 16 15 14 14 15 14 14 14 14 15 16 16 15 14 15 15 15 13 11 8 5 8 8 6 5 3 10 19 27 34 34 35 35 33 31 26 22 18 17 13 11
17 18 18 18 18 17 15 15 13 14 14 14 16 16 18 16 14 13 11 10 7 9 6 6 5 9 8 7 5 11 12 25 29 31 32 31 26 25 20 18 15 12 10
17 19 19 19 19 18 17 16 14 14 16 15 16 16 19 16 17 17 14 14 13 11 9 8 7 6 6 7 7 8 11 20 25 27 24 20 19 20 20 18 14 12 10
19 20 19 18 18 18 17 17 15 15 15 15 15 17 18 16 17 17 17 16 17 17 12 6 7 3 5 4 6 7 8 11 21 24 18 22 23 23 20 15 13 11 8
21 21 20 20 19 18 17 18 17 17 17 18 17 17 19 18 18 17 18 18 16 16 18 2 4 4 4 6 7 7 7 11 15 22 25 25 24 21 17 13 13 10 8
20 20 21 21 20 19 18 18 18 17 18 19 18 19 19 18 23 21 20 18 17 16 17 15 7 3 2 7 8 10 8 9 15 20 20 19 19 17 13 11 13 12 10
20 20 20 21 21 20 20 20 20 17 19 19 19 19 19 20 23 21 22 19 18 14 15 10 7 3 2 6 11 9 9 10 10 19 17 17 16 14 12 11 12 11 9
21 21 21 21 21 21 21 21 21 18 19 19 21 20 21 21 22 23 20 22 17 17 15 13 10 8 4 3 8 13 13 5 11 9 13 12 12 10 9 10 12 9 9
22 23 23 22 22 20 19 20 20 18 19 20 21 21 22 22 26 28 20 21 19 18 15 16 11 7 8 10 18 10 9 9 6 4 10 9 9 7 4 6 9 8 6
22 22 23 23 23 21 22 24 24 20 21 23 23 23 22 24 26 31 30 23 21 22 20 17 12 14 16 13 11 18 16 11 7 3 6 6 5 5 5 5 6 6 6
22 23 23 23 23 22 23 24 26 22 23 23 23 22 22 20 24 21 27 30 29 28 26 22 21 18 16 20 19 17 16 13 6 8 9 6 2 5 5 4 6 6 6
22 22 22 23 23 21 24 25 27 24 23 24 23 23 23 23 23 22 16 18 21 24 25 21 22 18 15 21 20 15 17 15 13 7 4 5 4 5 6 6 7 7 9
22 22 23 24 24 24 25 26 27 21 23 25 23 22 23 23 26 27 22 17 15 12 10 12 15 19 21 25 24 24 18 20 7 3 3 4 7 7 7 6 5 10 8
23 22 23 23 24 25 25 28 25 19 17 18 20 21 26 27 26 25 23 25 21 17 20 20 20 21 22 21 21 13 22 19 13 5 7 5 9 7 5 4 6 8 7
Wind_Direction
356 349 348 349 342 337 318 265 140 37 218 205 207 213 209 214 222 221 231 212 207 230 217 201 195 187 187 186 178 168 160 160 148 150 154 147 140 146 145 141 137 122 134
353 348 345 343 348 347 66 72 76 97 46 348 120 291 222 219 224 230 229 204 209 221 220 219 209 188 187 188 180 175 175 167 166 166 170 165 160 162 161 152 151 155 146
354 344 339 342 342 335 44 232 280 207 147 186 271 223 260 259 252 242 239 244 204 217 226 217 215 197 191 191 185 187 184 177 173 170 173 172 172 168 167 165 163 157 151
354 347 342 339 336 325 318 266 281 247 216 208 213 220 235 244 243 250 261 236 229 216 219 222 204 203 197 194 189 190 185 183 181 178 176 178 176 175 169 167 171 162 159
350 346 341 337 332 323 315 307 279 238 240 227 225 235 242 241 239 252 252 265 251 235 228 210 212 200 201 195 196 188 189 185 184 186 181 179 180 181 177 175 176 172 170
356 345 338 336 334 322 312 299 304 275 259 252 246 238 250 258 259 253 250 251 256 265 244 223 217 213 200 201 191 193 193 189 189 189 187 181 185 184 185 181 181 184 181
350 352 344 333 331 324 318 305 291 285 275 241 258 267 267 258 259 250 247 247 245 241 247 239 217 212 202 196 198 198 196 190 191 191 191 185 186 188 188 190 186 193 198
342 338 343 338 326 320 315 315 308 284 268 236 247 219 268 236 235 235 231 231 240 240 237 240 240 214 203 198 203 209 198 193 194 192 194 191 189 188 190 192 194 197 204
329 331 330 328 331 316 305 305 307 303 282 246 222 241 201 235 211 192 231 231 236 249 229 233 231 230 209 200 199 204 200 197 196 195 195 193 191 192 190 191 194 198 195
320 319 319 320 319 315 305 301 296 295 293 268 235 236 250 228 275 223 215 231 226 236 259 225 220 225 222 207 200 197 197 194 195 197 196 196 191 194 192 191 193 196 188
312 311 313 314 311 311 307 306 302 291 287 277 249 221 232 229 243 242 258 256 250 230 229 243 242 219 211 204 206 199 193 191 190 198 200 198 195 194 194 190 194 191 190
311 307 309 306 303 300 304 301 293 284 290 287 277 237 218 206 212 224 247 259 260 236 225 226 250 286 234 207 205 199 190 188 192 195 205 198 196 194 193 192 189 189 189
308 306 308 303 297 295 297 295 288 285 279 277 281 276 242 230 239 238 239 251 252 242 239 230 220 233 243 271 208 200 200 190 192 200 205 200 193 189 192 188 182 186 191
299 301 300 300 297 293 291 292 289 289 281 269 274 275 272 249 226 225 234 247 247 258 251 250 228 215 214 197 242 212 203 196 197 201 212 210 188 182 179 179 173 181 185
298 297 297 297 294 290 288 291 284 282 285 276 264 264 268 261 250 233 212 221 232 246 242 235 220 228 211 196 193 211 206 214 197 202 211 209 166 149 148 157 165 176 176
299 298 296 294 292 288 285 288 282 284 280 278 265 252 263 257 254 244 227 217 225 238 250 196 202 188 190 182 180 188 199 200 202 200 172 139 136 134 140 152 167 176 181
299 299 298 295 290 284 283 284 278 281 280 278 275 266 262 255 256 254 238 230 221 223 235 209 198 183 167 165 151 136 151 125 116 125 127 131 131 131 141 158 172 175 183
296 294 294 292 290 286 284 279 275 272 278 276 275 273 269 268 244 241 237 235 225 214 224 203 191 165 167 160 137 128 118 116 126 134 136 134 130 135 151 165 179 180 187
297 294 291 288 287 287 284 279 273 266 272 275 275 274 270 268 262 243 239 229 226 211 220 177 160 132 116 169 123 99 101 94 114 137 137 135 136 142 160 177 190 189 188
299 296 292 288 285 283 282 280 275 267 269 271 269 270 268 261 271 254 240 223 215 211 201 196 162 161 142 138 135 143 138 100 109 101 121 130 134 148 176 187 189 184 170
300 297 294 289 285 281 278 278 274 266 271 276 270 267 266 265 264 264 227 226 206 201 188 175 162 152 155 173 170 161 137 128 83 100 111 110 116 118 145 165 153 163 175
300 298 292 288 284 280 278 275 273 269 271 270 267 268 267 265 264 262 229 220 204 199 191 188 182 173 179 176 156 160 147 152 163 200 132 129 127 164 164 187 178 176 197
299 296 292 288 283 279 275 273 273 270 270 267 262 263 264 259 264 256 233 216 208 197 192 186 187 184 171 180 163 159 165 163 145 146 130 150 133 165 175 181 179 194 216
295 294 291 288 284 280 277 275 276 274 271 267 264 259 257 259 259 243 231 218 210 202 199 197 190 181 173 161 169 163 152 115 92 100 109 147 157 181 195 202 194 216 186
294 292 290 289 285 282 282 282 279 277 270 262 256 252 250 252 256 242 214 181 145 121 110 126 133 132 137 145 140 128 142 137 116 145 189 117 171 155 184 187 178 181 173
291 288 287 286 284 283 282 281 283 276 281 267 251 246 248 247 248 203 170 154 140 135 123 114 110 114 121 135 142 150 152 148 127 133 200 145 150 157 163 170 176 176 208